Dewpoint
54 54 54 54 54 54 54 54 56 55 56 57 60 61 61 61 60 50 43 41 37 47 46 23 23 24 27 30 31 29 22 23 22 19 18 20 17 22 24 20 22 23 23 28 31
52 52 53 53 53 54 54 54 53 56 55 56 58 60 61 61 53 45 48 47 44 46 25 20 19 21 22 27 30 26 25 24 22 21 19 18 18 18 20 19 20 23 25 29 32
52 51 52 52 53 53 53 54 54 53 56 55 56 59 61 58 45 35 48 44 43 40 23 21 20 19 22 25 27 26 25 24 20 16 17 18 18 19 20 20 20 20 24 29 31
52 52 51 52 53 53 53 53 54 54 54 55 55 58 59 51 34 24 45 40 44 31 23 23 23 24 26 25 24 24 24 22 22 20 21 21 23 22 22 23 22 21 22 29 30
51 51 51 52 52 53 53 53 54 55 56 55 55 57 50 44 41 29 41 36 37 21 23 27 26 27 27 25 24 24 23 23 23 23 23 22 22 23 22 24 23 23 25 27 29
50 50 50 51 52 52 53 53 53 54 56 56 54 56 47 39 37 29 22 17 18 17 26 29 29 26 25 23 22 23 21 21 20 20 21 24 25 27 29 29 27 26 26 26 28
51 50 50 51 52 52 53 53 52 54 55 56 54 52 46 37 35 23 18 20 17 19 28 29 27 26 28 26 25 25 26 27 27 28 30 32 31 31 32 31 31 30 29 30 30
52 51 51 50 52 53 53 53 52 55 56 57 54 49 37 40 39 30 20 21 21 24 27 30 29 30 29 30 28 28 28 28 30 32 31 29 25 27 28 28 27 26 24 27 29
52 53 52 51 49 53 53 53 53 54 56 54 50 43 35 38 36 36 27 23 24 27 28 28 32 32 31 29 29 30 27 28 27 29 29 26 24 23 24 23 21 21 20 20 25
50 51 52 52 51 51 54 53 52 53 49 51 43 39 38 33 25 25 23 23 25 28 29 29 30 29 30 30 28 25 26 24 24 24 23 22 22 23 24 23 25 25 24 29 41
49 49 49 50 51 50 50 40 37 41 43 36 34 33 35 27 22 22 22 23 27 30 29 30 27 28 26 28 28 26 22 22 22 24 23 23 22 22 21 20 22 22 26 35 39
46 48 48 49 50 50 45 39 38 42 35 33 33 33 36 30 31 27 24 27 28 28 28 27 25 26 25 25 26 25 23 23 23 19 15 16 18 24 22 27 30 32 33 34 32
47 48 48 48 49 44 40 40 46 45 37 28 32 33 34 37 35 33 26 29 25 25 23 25 23 20 21 22 23 23 22 21 20 16 16 15 22 31 27 26 22 26 31 29 34
46 47 48 48 43 41 39 46 47 47 32 18 31 36 34 37 34 31 27 25 24 24 27 25 23 19 21 21 22 23 19 18 16 16 24 16 24 26 25 31 21 20 23 26 31
46 47 47 47 41 38 38 47 47 47 19 17 32 22 28 28 23 20 21 21 28 26 23 24 19 16 16 19 16 19 14 14 15 18 19 22 25 23 22 25 19 18 20 22 32
47 47 46 43 43 40 42 46 46 32 19 23 24 21 21 23 24 23 20 24 27 29 26 26 23 20 22 13 12 15 17 19 19 21 24 27 25 21 24 31 18 19 17 12 26
46 47 45 43 39 45 47 44 30 23 18 17 21 21 22 23 30 28 34 29 30 29 28 24 23 19 17 18 16 15 21 26 24 22 24 19 18 25 23 20 31 32 19 21 34
47 47 44 40 43 44 42 34 22 28 15 30 30 25 23 32 31 31 30 29 28 27 29 21 21 18 17 18 20 19 22 26 19 19 19 16 20 23 19 20 28 27 27 15 24
47 40 40 39 41 44 36 28 21 29 27 22 31 28 29 28 30 28 27 25 27 30 29 26 19 15 14 14 15 19 22 21 24 19 17 17 17 18 12 12 13 23 28 25 27
40 40 37 44 44 41 33 28 21 26 27 27 23 26 27 31 29 27 24 26 28 29 32 30 25 22 15 14 14 15 18 21 22 20 17 14 14 12 12 14 7 22 26 25 27
39 35 40 45 45 37 29 27 21 23 27 26 29 27 23 27 25 25 27 26 31 31 30 31 29 23 19 19 19 16 22 20 25 24 21 15 15 26 29 28 24 25 24 25 26
39 30 42 44 33 35 31 24 32 27 31 28 29 31 28 27 27 26 26 27 32 31 30 28 30 25 22 18 17 14 17 22 24 23 22 19 16 21 26 25 23 23 24 26 27
35 34 42 40 29 33 28 26 29 26 30 34 30 29 31 27 27 22 27 33 33 30 32 30 28 24 24 23 19 17 16 21 25 26 22 19 17 13 17 22 21 21 25 27 28
37 30 37 37 35 33 32 29 29 33 30 30 29 31 27 27 28 27 29 31 33 31 32 29 27 25 21 25 27 24 24 21 24 22 21 21 19 15 14 22 25 25 25 27 29
37 31 33 30 32 32 33 34 26 28 32 33 30 31 29 28 29 27 31 31 30 32 32 31 23 24 22 21 22 23 25 24 24 22 22 22 23 24 24 28 21 22 27 28 28
34 32 35 32 30 32 32 31 27 34 32 28 31 27 31 29 29 27 31 28 25 28 30 30 24 22 20 19 20 20 20 23 25 23 22 23 23 25 20 13 19 26 27 27 28
39 39 36 31 33 31 32 31 29 34 34 35 32 33 31 31 31 31 32 32 31 30 27 27 25 21 18 19 23 20 24 24 24 26 23 22 23 20 16 5 22 26 26 26 27
Lifted_Index
9 9 9 9 9 9 9 8 8 8 7 6 5 4 3 3 4 5 6 8 9 9 9 9 9 9 10 10 10 10 8 7 7 7 9 9 10 11 11 11 11 12 13 14 14
9 9 8 8 8 8 8 8 8 7 7 6 5 4 3 3 4 5 7 8 9 9 9 9 9 9 9 9 9 9 8 7 8 8 9 9 10 10 10 10 11 12 13 14 14
8 8 8 8 7 7 7 7 7 7 6 6 5 4 3 4 5 7 8 9 10 10 9 9 8 8 8 9 9 9 8 8 9 9 9 9 10 10 10 10 11 12 13 14 14
8 8 8 7 7 7 6 6 6 5 5 5 5 4 3 4 5 7 8 9 9 10 9 8 8 8 8 8 9 8 8 8 9 9 9 9 9 9 9 10 11 12 13 13 13
8 8 7 7 7 6 6 6 5 5 4 4 4 4 4 4 5 6 7 8 9 9 8 7 7 7 8 8 8 8 8 8 9 9 9 9 9 9 9 10 11 12 12 12 12
8 8 8 7 7 6 6 6 5 4 4 4 4 3 4 4 5 6 7 8 9 10 9 7 7 7 7 7 7 8 8 8 8 8 8 8 8 8 9 9 10 11 11 11 11
8 8 8 7 6 6 6 6 5 4 3 3 3 4 4 5 5 6 7 8 10 10 9 7 6 6 7 7 7 7 7 7 7 7 8 8 8 8 9 9 10 10 11 11 11
7 7 7 7 6 5 5 5 5 4 3 2 3 4 4 5 5 6 7 7 9 9 8 7 6 6 6 7 7 6 6 5 6 6 7 7 7 8 9 9 10 11 11 12 12
6 6 6 6 6 5 5 5 4 3 2 2 3 4 4 5 5 6 6 7 7 7 7 7 6 6 6 6 5 5 4 4 5 5 6 6 6 7 8 9 10 10 11 12 13
6 6 6 6 6 5 5 4 4 3 2 2 3 3 4 4 5 5 6 6 5 6 6 6 6 5 5 5 4 4 3 4 4 5 5 5 6 6 8 9 9 9 11 12 12
6 6 6 6 6 5 5 5 4 3 2 2 3 3 3 4 5 5 4 4 4 4 5 5 5 4 4 4 4 4 4 4 4 5 5 5 5 5 7 8 8 8 10 11 12
7 6 6 6 6 6 5 5 4 3 4 4 3 3 3 3 4 4 3 3 4 4 4 4 4 4 4 4 4 4 3 4 4 4 4 5 5 5 6 7 7 8 10 10 11
7 7 6 6 6 6 6 5 5 4 5 5 4 3 3 2 2 3 3 3 4 4 4 3 3 3 3 3 3 3 3 3 3 4 4 4 4 4 5 6 7 8 9 10 10
7 7 7 7 6 6 6 5 5 4 4 5 4 4 3 3 2 3 3 4 3 3 3 3 3 3 3 3 3 3 3 3 3 3 3 3 3 4 5 5 6 8 9 10 11
7 6 6 6 6 6 5 4 4 3 3 3 4 4 4 3 3 4 4 4 3 2 2 2 3 3 4 4 4 3 3 3 3 3 3 3 3 4 4 4 6 8 10 11 12
5 5 5 5 5 5 5 4 3 2 2 2 3 3 3 3 3 3 4 3 3 2 2 3 3 4 4 4 4 3 3 3 2 2 2 3 3 3 3 4 6 8 10 12 12
4 4 5 5 5 5 4 3 2 1 1 1 1 1 1 1 2 2 2 3 2 2 2 3 3 4 4 4 4 3 3 2 1 1 1 2 2 2 3 5 7 9 10 11 11
4 4 5 5 5 5 4 2 1 0 0 -0 -1 -0 0 0 1 1 2 2 2 2 2 2 3 4 4 4 4 3 3 2 1 1 1 2 2 2 4 6 8 9 10 11 12
4 5 5 4 4 3 2 1 0 0 0 -0 -1 -1 -1 -0 0 1 2 2 3 3 3 2 2 3 4 4 4 3 3 3 2 1 1 2 2 2 4 6 8 9 10 11 12
5 5 4 3 2 2 1 1 0 0 0 0 -0 -0 -1 -1 0 1 2 3 3 3 3 3 3 3 3 3 4 3 3 3 2 2 1 1 1 2 4 6 8 8 9 10 12
5 5 3 2 2 1 1 1 0 0 0 0 0 -0 -0 -0 0 1 2 3 4 4 4 3 3 3 3 3 3 3 3 3 2 2 1 1 2 3 5 7 8 8 8 10 11
5 5 3 2 2 1 1 1 0 0 0 0 0 0 -0 0 1 1 2 3 4 4 4 3 3 3 3 3 3 3 3 3 3 2 2 1 2 4 6 8 8 8 8 10 11
5 4 3 2 2 1 1 0 0 0 0 0 0 0 0 1 1 2 3 3 4 4 4 4 3 3 3 3 3 3 3 3 2 2 2 2 2 4 6 7 8 8 9 10 11
5 4 3 2 2 1 1 0 0 0 0 0 0 0 1 1 2 2 3 4 4 4 4 4 3 3 3 3 3 3 3 2 2 2 2 2 3 4 6 6 7 7 9 10 10
4 3 3 2 2 2 1 1 0 0 0 0 0 1 1 2 2 3 3 4 4 4 5 4 4 3 3 3 4 3 3 2 2 2 2 2 3 5 6 6 7 8 10 10 10
3 3 3 2 2 2 1 1 0 0 0 1 1 1 2 2 3 3 4 4 4 5 4 4 3 3 3 3 3 3 2 2 2 3 3 3 4 6 7 7 8 9 10 10 9
3 3 3 3 2 2 1 1 0 0 1 1 1 2 2 3 4 4 4 4 5 4 4 4 3 3 3 2 2 2 2 2 3 3 4 3 5 6 7 7 8 10 11 10 9